Regional Weather Roundup
Issued by NWS Boston, MA

Home | Current Version | Previous Version | Text Only | Print | Product List | Glossary On
Versions: 1 2 3 4 5 6 7 8 9 10 11 12 13 14 15 16 17 18 19 20 21 22 23 24 25 26 27 28 29 30 31 32 33 34 35 36 37 38 39 40 41 42 43 44 45 46 47 48 49 50
000
ASUS41 KBOX 240710
RWRBOX

REGIONAL WEATHER ROUNDUP
NATIONAL WEATHER SERVICE TAUNTON MA
300 AM EDT THU JUL 24 2014

NOTE:  "FAIR" INDICATES FEW OR NO CLOUDS BELOW 12,000 FEET WITH NO
SIGNIFICANT WEATHER AND/OR OBSTRUCTIONS TO VISIBILITY.  THE FOLLOWING
OBSERVATION LOCATIONS DO NOT REPORT PRESENT WEATHER...PROVINCETOWN...
SMITHFIELD...BLOCK ISLAND...KEENE...AND OXFORD.

MAZALL-240800-
EASTERN MASSACHUSETTS

CITY           SKY/WX    TMP DP  RH WIND       PRES   REMARKS
BOSTON         CLOUDY    75  67  76 NW6       29.75F
BEVERLY        CLOUDY    72  68  87 NW5       29.74F
LAWRENCE       CLOUDY    71  69  93 W5        29.77F
BEDFORD        CLOUDY    71  70  96 W5        29.74F
BLUE HILL        N/A     69  67  93 W8        29.76F
NORWOOD        PTCLDY    71  67  87 NW3       29.75F
MARSHFIELD     MOCLDY    72  68  88 W3        29.76F
PLYMOUTH       MOCLDY    70  65  84 CALM      29.75F
TAUNTON        PTCLDY    68  66  93 CALM      29.75F
NEW BEDFORD    MOCLDY    70  68  93 CALM      29.75F
$$

MAZALL-240800-
CAPE COD AND THE ISLANDS

CITY           SKY/WX    TMP DP  RH WIND       PRES   REMARKS
FALMOUTH       CLOUDY    72  70  94 W7        29.75F
HYANNIS        CLOUDY    73  70  90 W7        29.74F
CHATHAM        CLOUDY    72  70  93 VRB7      29.76R
PROVINCETOWN   MOCLDY    66  66 100 W7        29.75F
NANTUCKET      FOG       67  66  97 SW9       29.76F VSB 1/4
MARTHAS VNYRD  MOCLDY    71  70  96 SW7       29.76R
$$

MAZALL-240800-
CENTRAL AND WESTERN MASSACHUSETTS

CITY           SKY/WX    TMP DP  RH WIND       PRES   REMARKS
WORCESTER      CLOUDY    69  67  93 W8        29.79F
FITCHBURG      LGT RAIN  73  69  87 CALM      29.77F
ORANGE           N/A    N/A N/A N/A MISG      29.79S
SPRINGFIELD    CLOUDY    70  68  94 NW10      29.77S
WESTFIELD      CLOUDY    71  67  87 N5        29.78R
NORTH ADAMS    CLOUDY    66  62  87 W5        29.81F
PITTSFIELD     MOCLDY    65  61  87 NW5       29.83S
$$

RIZALL-240800-
RHODE ISLAND

CITY           SKY/WX    TMP DP  RH WIND       PRES   REMARKS
PROVIDENCE     PTCLDY    71  66  84 W7        29.76F
NEWPORT        PTCLDY    70  68  93 CALM      29.76S
BLOCK ISLAND   PTCLDY    70  64  83 SW9       29.78R
SMITHFIELD     PTCLDY    66  63  88 CALM      29.80R
WESTERLY       MOCLDY    71  68  90 W5        29.78S
$$

CTZALL-240800-
CONNECTICUT

CITY           SKY/WX    TMP DP  RH WIND       PRES   REMARKS
BRADLEY INTL   CLOUDY    71  68  90 NW3       29.77S
HARTFORD       MOCLDY    72  68  87 W5        29.77S
BRIDGEPORT     CLOUDY    73  68  84 NW5       29.80R
DANBURY        MOCLDY    70  66  87 CALM      29.83R
GROTON         MOCLDY    70  69  97 CALM      29.76S
NEW HAVEN      MOCLDY    73  69  87 CALM      29.79R
CHESTER        FAIR      70  68  94 W3        29.80S
MERIDEN        MOCLDY    69  68  96 CALM      29.79R FOG
WILLIMANTIC    MOCLDY    71  68  90 CALM      29.77F
OXFORD         MOCLDY    68  63  83 NW3       29.83S
$$

MEZ002-015-021-024-NHZ003-005-008-011-012-014-VTZ005-008-240800-
NORTHERN NEW ENGLAND

CITY           SKY/WX    TMP DP  RH WIND       PRES   REMARKS
PORTLAND ME    CLOUDY    70  68  93 NW3       29.74S
BANGOR ME      CLOUDY    69  66  90 N10       29.74R
CONCORD NH     LGT RAIN  69  67  93 CALM      29.77S
MANCHESTER NH  DRIZZLE   72  69  90 VRB3      29.75S
NASHUA NH      CLOUDY    71  71 100 CALM      29.77S FOG
PORTSMOUTH NH  CLOUDY    71  69  96 SW3       29.74S
JAFFREY NH     LGT RAIN  66  64  93 VRB3      29.81S
KEENE NH       CLOUDY    66  59  77 N5        29.80F
BURLINGTON VT  CLOUDY    66  57  72 N6        29.85S
MT. WASHINGTON LGT RAIN  48  48 100 NW26        N/A  VSB 0
$$

NYZ052-076-240800-
EASTERN NEW YORK

CITY           SKY/WX    TMP DP  RH WIND       PRES   REMARKS
ALBANY         CLOUDY    68  64  87 NW8       29.83F
NEW YORK CITY  MOCLDY    74  68  81 NW9       29.79S
$$

ANZALL-240800-
MARINE OBSERVATIONS

STATION/POSITION TIME  TEMP    WIND        PRES    VSBY  WAVE
                       AIR SEA DIR/SP/G                  HT/PER
                 (UTC) (F)     (DEG/KT/KT) (MB)    (MI)  (FT/S)
BOSTON BUOY      NOT AVBL
BUZZARDS BAY     NOT AVBL
NANTUCKET SOUND  NOT AVBL
MASS BAY-STELLWA NOT AVBL
ISLE OF SHOALS   NOT AVBL
S OF BLOCK IS    NOT AVBL
$$

......................KEY.........................
  SKY/WX - SKY CONDITION/PRESENT WEATHER
  TMP    - TEMPERATURE IN FAHRENHEIT
  DWPT   - DEWPOINT IN FAHRENHEIT
  RH     - RELATIVE HUMIDITY IN PERCENT
  WIND   - DIRECTION AND SPEED IN MPH
  PRES   - MEAN SEA LEVEL PRESSURE IN INCHES OF HG
  WCI    - WIND CHILL INDEX
  VSB    - VISIBILITY IN MILES
  HX     - HEAT INDEX
  TC     - TEMPERATURE IN CELSIUS
  VRB    - VARIABLE WIND DIRECTION
  N/A    - NOT AVAILABLE


USA.gov is the U.S. government's official web portal to all federal, state and local government web resources and services.